date,time,SUV Intensity [MED/Hr],UV Index,Daily total [MED],Since Last [MED]
05/02/2022,00:04:17,0.000,0.0,0.0,0.0
05/02/2022,00:05:17,0.000,0.0,0.0,0.0
05/02/2022,00:06:17,-0.001,0.0,0.0,0.0
05/02/2022,00:07:17,-0.001,0.0,0.0,0.0
05/02/2022,00:08:18,0.000,0.0,0.0,0.0
05/02/2022,00:09:17,0.001,0.0,0.0,0.0
05/02/2022,00:10:17,-0.000,0.0,0.0,0.0
05/02/2022,00:11:16,0.000,0.0,0.0,0.0
05/02/2022,00:12:18,0.000,0.0,0.0,0.0
05/02/2022,00:13:25,-0.001,0.0,0.0,0.0
05/02/2022,00:14:17,0.001,0.0,0.0,0.0
05/02/2022,00:15:17,0.000,0.0,0.0,0.0
05/02/2022,00:16:18,0.001,0.0,0.0,0.0
05/02/2022,00:17:18,0.000,0.0,0.0,0.0
05/02/2022,00:18:18,-0.001,0.0,0.0,0.0
05/02/2022,00:19:17,0.000,0.0,0.0,0.0
05/02/2022,00:20:17,-0.000,0.0,0.0,0.0
05/02/2022,00:21:17,0.000,0.0,0.0,0.0
05/02/2022,00:22:26,0.000,0.0,0.0,0.0
05/02/2022,00:23:17,0.000,0.0,0.0,0.0
05/02/2022,00:24:17,0.001,0.0,0.0,0.0
05/02/2022,00:25:17,0.000,0.0,0.0,0.0
05/02/2022,00:26:18,0.001,0.0,0.0,0.0
05/02/2022,00:27:17,0.000,0.0,0.0,0.0
05/02/2022,00:28:18,0.000,0.0,0.0,0.0
05/02/2022,00:29:17,0.000,0.0,0.0,0.0
05/02/2022,00:30:17,0.000,0.0,0.0,0.0
05/02/2022,00:31:17,0.000,0.0,0.0,0.0
05/02/2022,00:32:25,0.000,0.0,0.0,0.0
05/02/2022,00:33:17,0.000,0.0,0.0,0.0
05/02/2022,00:34:18,0.000,0.0,0.0,0.0
05/02/2022,00:35:18,0.000,0.0,0.0,0.0
05/02/2022,00:36:17,0.000,0.0,0.0,0.0
05/02/2022,00:37:18,0.000,0.0,0.0,0.0
05/02/2022,00:38:17,0.000,0.0,0.0,0.0
05/02/2022,00:39:17,0.000,0.0,0.0,0.0
05/02/2022,00:41:18,0.000,0.0,0.0,0.0
05/02/2022,00:42:18,0.000,0.0,0.0,0.0
05/02/2022,00:43:17,-0.000,0.0,0.0,0.0
05/02/2022,00:44:17,0.000,0.0,0.0,0.0
05/02/2022,00:45:17,0.000,0.0,0.0,0.0
05/02/2022,00:46:17,0.000,0.0,0.0,0.0
05/02/2022,00:47:18,0.001,0.0,0.0,0.0
05/02/2022,00:48:17,-0.001,0.0,0.0,0.0
05/02/2022,00:49:17,-0.000,0.0,0.0,0.0
05/02/2022,00:50:17,0.000,0.0,0.0,0.0
05/02/2022,00:51:17,0.001,0.0,0.0,0.0
05/02/2022,00:52:18,0.000,0.0,0.0,0.0
05/02/2022,00:53:17,0.000,0.0,0.0,0.0
05/02/2022,00:54:18,0.000,0.0,0.0,0.0
05/02/2022,00:55:17,0.000,0.0,0.0,0.0
05/02/2022,00:56:25,-0.000,0.0,0.0,0.0
05/02/2022,00:57:18,0.000,0.0,0.0,0.0
05/02/2022,00:58:17,0.000,0.0,0.0,0.0
05/02/2022,00:59:17,0.001,0.0,0.0,0.0
05/02/2022,01:00:17,0.000,0.0,0.0,0.0
05/02/2022,01:01:18,0.000,0.0,0.0,0.0
05/02/2022,01:02:18,0.000,0.0,0.0,0.0
05/02/2022,01:03:18,0.000,0.0,0.0,0.0
05/02/2022,01:04:17,0.000,0.0,0.0,0.0
05/02/2022,01:05:17,0.000,0.0,0.0,0.0
05/02/2022,01:06:25,0.000,0.0,0.0,0.0
05/02/2022,01:07:17,0.000,0.0,0.0,0.0
05/02/2022,01:08:17,-0.001,0.0,0.0,0.0
05/02/2022,01:09:18,0.001,0.0,0.0,0.0
05/02/2022,01:10:18,-0.001,0.0,0.0,0.0
05/02/2022,01:11:18,0.000,0.0,0.0,0.0
05/02/2022,01:12:17,0.000,0.0,0.0,0.0
05/02/2022,01:13:19,0.000,0.0,0.0,0.0
05/02/2022,01:14:17,0.000,0.0,0.0,0.0
05/02/2022,01:15:17,0.000,0.0,0.0,0.0
05/02/2022,01:16:17,0.000,0.0,0.0,0.0
05/02/2022,01:17:17,0.000,0.0,0.0,0.0
05/02/2022,01:18:17,0.000,0.0,0.0,0.0
05/02/2022,01:19:17,0.000,0.0,0.0,0.0
05/02/2022,01:20:18,0.001,0.0,0.0,0.0
05/02/2022,01:21:19,0.001,0.0,0.0,0.0
05/02/2022,01:22:17,0.000,0.0,0.0,0.0
05/02/2022,01:23:18,0.001,0.0,0.0,0.0
05/02/2022,01:24:17,0.001,0.0,0.0,0.0
05/02/2022,01:25:17,0.000,0.0,0.0,0.0
05/02/2022,01:26:17,0.000,0.0,0.0,0.0
05/02/2022,01:27:17,0.000,0.0,0.0,0.0
05/02/2022,01:28:17,0.000,0.0,0.0,0.0
05/02/2022,01:29:17,0.000,0.0,0.0,0.0
05/02/2022,01:30:26,0.000,0.0,0.0,0.0
05/02/2022,01:31:17,-0.000,0.0,0.0,0.0
05/02/2022,01:32:17,-0.001,0.0,0.0,0.0
05/02/2022,01:33:17,0.001,0.0,0.0,0.0
05/02/2022,01:34:18,0.000,0.0,0.0,0.0
05/02/2022,01:35:17,-0.000,0.0,0.0,0.0
05/02/2022,01:36:17,-0.000,0.0,0.0,0.0
05/02/2022,01:37:17,0.001,0.0,0.0,0.0
05/02/2022,01:38:18,0.000,0.0,0.0,0.0
05/02/2022,01:39:17,0.000,0.0,0.0,0.0
05/02/2022,01:40:26,0.000,0.0,0.0,0.0
05/02/2022,01:41:17,0.001,0.0,0.0,0.0
05/02/2022,01:42:18,-0.001,0.0,0.0,0.0
05/02/2022,01:43:18,-0.001,0.0,0.0,0.0
05/02/2022,01:44:17,0.000,0.0,0.0,0.0
05/02/2022,01:45:18,0.000,0.0,0.0,0.0
05/02/2022,01:46:18,0.000,0.0,0.0,0.0
05/02/2022,01:47:17,0.001,0.0,0.0,0.0
05/02/2022,01:48:17,0.000,0.0,0.0,0.0
05/02/2022,01:49:17,0.000,0.0,0.0,0.0
05/02/2022,01:50:18,0.000,0.0,0.0,0.0
05/02/2022,01:51:17,0.000,0.0,0.0,0.0
05/02/2022,01:52:18,-0.001,0.0,0.0,0.0
05/02/2022,01:53:26,0.001,0.0,0.0,0.0
05/02/2022,01:54:17,0.001,0.0,0.0,0.0
05/02/2022,01:55:18,0.000,0.0,0.0,0.0
05/02/2022,01:56:17,0.000,0.0,0.0,0.0
05/02/2022,01:57:18,-0.001,0.0,0.0,0.0
05/02/2022,01:58:18,0.001,0.0,0.0,0.0
05/02/2022,01:59:18,-0.001,0.0,0.0,0.0
05/02/2022,02:00:18,0.001,0.0,0.0,0.0
05/02/2022,02:01:17,0.000,0.0,0.0,0.0
05/02/2022,02:02:18,0.000,0.0,0.0,0.0
05/02/2022,02:03:17,0.000,0.0,0.0,0.0
05/02/2022,02:04:18,0.000,0.0,0.0,0.0
05/02/2022,02:05:17,0.001,0.0,0.0,0.0
05/02/2022,02:06:17,0.000,0.0,0.0,0.0
05/02/2022,02:07:26,0.001,0.0,0.0,0.0
05/02/2022,02:08:17,0.000,0.0,0.0,0.0
05/02/2022,02:09:17,0.000,0.0,0.0,0.0
05/02/2022,02:10:18,0.000,0.0,0.0,0.0
05/02/2022,02:11:17,0.000,0.0,0.0,0.0
05/02/2022,02:12:18,0.000,0.0,0.0,0.0
05/02/2022,02:13:17,0.000,0.0,0.0,0.0
05/02/2022,02:14:17,0.000,0.0,0.0,0.0
05/02/2022,02:15:17,0.000,0.0,0.0,0.0
05/02/2022,02:16:17,0.000,0.0,0.0,0.0
05/02/2022,02:18:18,-0.000,0.0,0.0,0.0
05/02/2022,02:19:17,0.000,0.0,0.0,0.0
05/02/2022,02:20:17,0.001,0.0,0.0,0.0
05/02/2022,02:21:17,-0.000,0.0,0.0,0.0
05/02/2022,02:22:17,-0.000,0.0,0.0,0.0
05/02/2022,02:23:17,-0.000,0.0,0.0,0.0
05/02/2022,02:24:17,0.000,0.0,0.0,0.0
05/02/2022,02:25:18,0.000,0.0,0.0,0.0
05/02/2022,02:26:17,0.001,0.0,0.0,0.0
05/02/2022,02:27:17,0.000,0.0,0.0,0.0
05/02/2022,02:28:18,-0.001,0.0,0.0,0.0
05/02/2022,02:29:17,0.001,0.0,0.0,0.0
05/02/2022,02:30:26,-0.000,0.0,0.0,0.0
05/02/2022,02:31:25,0.000,0.0,0.0,0.0
05/02/2022,02:32:18,0.001,0.0,0.0,0.0
05/02/2022,02:33:18,0.000,0.0,0.0,0.0
05/02/2022,02:34:18,0.000,0.0,0.0,0.0
05/02/2022,02:35:17,0.002,0.0,0.0,0.0
05/02/2022,02:36:17,0.000,0.0,0.0,0.0
05/02/2022,02:37:17,-0.000,0.0,0.0,0.0
05/02/2022,02:38:17,-0.001,0.0,0.0,0.0
05/02/2022,02:39:17,0.001,0.0,0.0,0.0
05/02/2022,02:40:18,-0.001,0.0,0.0,0.0
05/02/2022,02:41:26,0.000,0.0,0.0,0.0
05/02/2022,02:42:17,0.001,0.0,0.0,0.0
05/02/2022,02:43:17,0.000,0.0,0.0,0.0
05/02/2022,02:44:27,0.000,0.0,0.0,0.0
05/02/2022,02:45:16,-0.001,0.0,0.0,0.0
05/02/2022,02:46:18,0.000,0.0,0.0,0.0
05/02/2022,02:47:18,0.000,0.0,0.0,0.0
05/02/2022,02:48:18,0.001,0.0,0.0,0.0
05/02/2022,02:49:17,0.000,0.0,0.0,0.0
05/02/2022,02:50:19,0.001,0.0,0.0,0.0
05/02/2022,02:51:18,0.000,0.0,0.0,0.0
05/02/2022,02:52:17,0.000,0.0,0.0,0.0
05/02/2022,02:53:18,0.001,0.0,0.0,0.0
05/02/2022,02:54:26,-0.001,0.0,0.0,0.0
05/02/2022,02:55:18,0.000,0.0,0.0,0.0
05/02/2022,02:56:17,0.001,0.0,0.0,0.0
05/02/2022,02:57:17,0.000,0.0,0.0,0.0
05/02/2022,02:58:17,0.000,0.0,0.0,0.0
05/02/2022,02:59:17,0.000,0.0,0.0,0.0
05/02/2022,03:00:18,0.000,0.0,0.0,0.0
05/02/2022,03:01:17,-0.001,0.0,0.0,0.0
05/02/2022,03:02:17,0.000,0.0,0.0,0.0
05/02/2022,03:03:18,0.000,0.0,0.0,0.0
05/02/2022,03:04:26,-0.000,0.0,0.0,0.0
05/02/2022,03:05:26,0.000,0.0,0.0,0.0
05/02/2022,03:06:17,0.000,0.0,0.0,0.0
05/02/2022,03:07:17,0.000,0.0,0.0,0.0
05/02/2022,03:08:18,0.001,0.0,0.0,0.0
05/02/2022,03:09:18,0.001,0.0,0.0,0.0
05/02/2022,03:10:25,-0.000,0.0,0.0,0.0
05/02/2022,03:11:17,0.000,0.0,0.0,0.0
05/02/2022,03:12:15,0.001,0.0,0.0,0.0
05/02/2022,03:13:17,0.000,0.0,0.0,0.0
05/02/2022,03:14:17,0.000,0.0,0.0,0.0
05/02/2022,03:15:17,-0.001,0.0,0.0,0.0
05/02/2022,03:16:18,-0.000,0.0,0.0,0.0
05/02/2022,03:17:17,0.000,0.0,0.0,0.0
05/02/2022,03:18:26,0.000,0.0,0.0,0.0
05/02/2022,03:19:17,0.001,0.0,0.0,0.0
05/02/2022,03:20:18,-0.000,0.0,0.0,0.0
05/02/2022,03:21:17,0.000,0.0,0.0,0.0
05/02/2022,03:22:18,0.000,0.0,0.0,0.0
05/02/2022,03:23:17,0.000,0.0,0.0,0.0
05/02/2022,03:24:18,0.000,0.0,0.0,0.0
05/02/2022,03:25:17,-0.000,0.0,0.0,0.0
05/02/2022,03:26:18,-0.000,0.0,0.0,0.0
05/02/2022,03:27:17,0.001,0.0,0.0,0.0
05/02/2022,03:28:17,0.000,0.0,0.0,0.0
05/02/2022,03:29:18,0.001,0.0,0.0,0.0
05/02/2022,03:30:18,0.000,0.0,0.0,0.0
05/02/2022,03:31:18,-0.001,0.0,0.0,0.0
05/02/2022,03:32:18,-0.001,0.0,0.0,0.0
05/02/2022,03:33:17,0.000,0.0,0.0,0.0
05/02/2022,03:34:17,-0.001,0.0,0.0,0.0
05/02/2022,03:35:18,0.000,0.0,0.0,0.0
05/02/2022,03:36:18,0.000,0.0,0.0,0.0
05/02/2022,03:37:18,0.000,0.0,0.0,0.0
05/02/2022,03:38:18,0.000,0.0,0.0,0.0
05/02/2022,03:39:17,0.000,0.0,0.0,0.0
05/02/2022,03:40:18,0.000,0.0,0.0,0.0
05/02/2022,03:41:25,0.000,0.0,0.0,0.0
05/02/2022,03:42:17,0.000,0.0,0.0,0.0
05/02/2022,03:43:17,0.001,0.0,0.0,0.0
05/02/2022,03:44:17,0.000,0.0,0.0,0.0
05/02/2022,03:45:25,0.000,0.0,0.0,0.0
05/02/2022,03:46:18,0.000,0.0,0.0,0.0
05/02/2022,03:47:17,0.000,0.0,0.0,0.0
05/02/2022,03:48:17,0.000,0.0,0.0,0.0
05/02/2022,03:49:18,0.000,0.0,0.0,0.0
05/02/2022,03:50:17,-0.001,0.0,0.0,0.0
05/02/2022,03:51:17,-0.001,0.0,0.0,0.0
05/02/2022,03:52:18,0.000,0.0,0.0,0.0
05/02/2022,03:53:17,0.000,0.0,0.0,0.0
05/02/2022,03:54:17,0.001,0.0,0.0,0.0
05/02/2022,03:55:17,-0.000,0.0,0.0,0.0
05/02/2022,03:56:17,0.001,0.0,0.0,0.0
05/02/2022,03:57:18,-0.001,0.0,0.0,0.0
05/02/2022,03:58:18,0.000,0.0,0.0,0.0
05/02/2022,03:59:17,0.000,0.0,0.0,0.0
05/02/2022,04:00:17,0.001,0.0,0.0,0.0
05/02/2022,04:01:18,-0.001,0.0,0.0,0.0
05/02/2022,04:02:17,0.000,0.0,0.0,0.0
05/02/2022,04:03:17,-0.000,0.0,0.0,0.0
05/02/2022,04:04:18,0.000,0.0,0.0,0.0
05/02/2022,04:05:18,0.000,0.0,0.0,0.0
05/02/2022,04:06:26,0.000,0.0,0.0,0.0
05/02/2022,04:07:17,0.000,0.0,0.0,0.0
05/02/2022,04:08:18,-0.001,0.0,0.0,0.0
05/02/2022,04:09:18,0.000,0.0,0.0,0.0
05/02/2022,04:10:18,0.000,0.0,0.0,0.0
05/02/2022,04:11:19,0.000,0.0,0.0,0.0
05/02/2022,04:12:18,-0.001,0.0,0.0,0.0
05/02/2022,04:13:18,0.001,0.0,0.0,0.0
05/02/2022,04:14:17,0.000,0.0,0.0,0.0
05/02/2022,04:15:18,0.000,0.0,0.0,0.0
05/02/2022,04:16:26,0.000,0.0,0.0,0.0
05/02/2022,04:17:18,0.000,0.0,0.0,0.0
05/02/2022,04:18:17,-0.000,0.0,0.0,0.0
05/02/2022,04:19:25,0.000,0.0,0.0,0.0
05/02/2022,04:20:17,0.000,0.0,0.0,0.0
05/02/2022,04:21:17,0.000,0.0,0.0,0.0
05/02/2022,04:22:18,0.000,0.0,0.0,0.0
05/02/2022,04:23:18,0.000,0.0,0.0,0.0
05/02/2022,04:24:17,0.000,0.0,0.0,0.0
05/02/2022,04:25:17,-0.000,0.0,0.0,0.0
05/02/2022,04:26:18,0.001,0.0,0.0,0.0
05/02/2022,04:28:18,0.000,0.0,0.0,0.0
05/02/2022,04:29:18,0.001,0.0,0.0,0.0
05/02/2022,04:30:26,0.000,0.0,0.0,0.0
05/02/2022,04:31:18,0.000,0.0,0.0,0.0
05/02/2022,04:32:19,0.000,0.0,0.0,0.0
05/02/2022,04:33:18,-0.001,0.0,0.0,0.0
05/02/2022,04:34:18,0.001,0.0,0.0,0.0
05/02/2022,04:35:18,0.000,0.0,0.0,0.0
05/02/2022,04:36:17,0.000,0.0,0.0,0.0
05/02/2022,04:37:17,0.000,0.0,0.0,0.0
05/02/2022,04:38:17,0.001,0.0,0.0,0.0
05/02/2022,04:39:18,0.001,0.0,0.0,0.0
05/02/2022,04:40:26,-0.000,0.0,0.0,0.0
05/02/2022,04:41:17,0.000,0.0,0.0,0.0
05/02/2022,04:42:17,0.000,0.0,0.0,0.0
05/02/2022,04:43:26,-0.000,0.0,0.0,0.0
05/02/2022,04:44:17,0.001,0.0,0.0,0.0
05/02/2022,04:45:18,-0.000,0.0,0.0,0.0
05/02/2022,04:46:17,0.000,0.0,0.0,0.0
05/02/2022,04:47:18,0.000,0.0,0.0,0.0
05/02/2022,04:48:18,0.000,0.0,0.0,0.0
05/02/2022,04:49:17,0.001,0.0,0.0,0.0
05/02/2022,04:50:17,0.000,0.0,0.0,0.0
05/02/2022,04:51:18,-0.001,0.0,0.0,0.0
05/02/2022,04:52:18,0.000,0.0,0.0,0.0
05/02/2022,04:53:18,0.000,0.0,0.0,0.0
05/02/2022,04:54:25,0.001,0.0,0.0,0.0
05/02/2022,04:55:17,0.001,0.0,0.0,0.0
05/02/2022,04:56:17,-0.001,0.0,0.0,0.0
05/02/2022,04:57:17,0.001,0.0,0.0,0.0
05/02/2022,04:58:18,-0.001,0.0,0.0,0.0
05/02/2022,04:59:18,0.001,0.0,0.0,0.0
05/02/2022,05:00:18,0.000,0.0,0.0,0.0
05/02/2022,05:01:17,0.000,0.0,0.0,0.0
05/02/2022,05:02:17,-0.000,0.0,0.0,0.0
05/02/2022,05:03:18,0.000,0.0,0.0,0.0
05/02/2022,05:04:26,0.000,0.0,0.0,0.0
05/02/2022,05:05:17,0.000,0.0,0.0,0.0
05/02/2022,05:06:18,0.000,0.0,0.0,0.0
05/02/2022,05:07:26,0.000,0.0,0.0,0.0
05/02/2022,05:08:18,0.001,0.0,0.0,0.0
05/02/2022,05:09:18,-0.001,0.0,0.0,0.0
05/02/2022,05:10:18,0.000,0.0,0.0,0.0
05/02/2022,05:11:17,-0.000,0.0,0.0,0.0
05/02/2022,05:12:17,0.001,0.0,0.0,0.0
05/02/2022,05:13:19,0.000,0.0,0.0,0.0
05/02/2022,05:14:18,0.000,0.0,0.0,0.0
05/02/2022,05:15:18,0.000,0.0,0.0,0.0
05/02/2022,05:16:17,-0.001,0.0,0.0,0.0
05/02/2022,05:17:18,0.001,0.0,0.0,0.0
05/02/2022,05:18:17,0.001,0.0,0.0,0.0
05/02/2022,05:19:18,-0.000,0.0,0.0,0.0
05/02/2022,05:20:17,0.000,0.0,0.0,0.0
05/02/2022,05:21:18,0.000,0.0,0.0,0.0
05/02/2022,05:22:18,0.000,0.0,0.0,0.0
05/02/2022,05:23:18,0.001,0.0,0.0,0.0
05/02/2022,05:24:17,0.000,0.0,0.0,0.0
05/02/2022,05:25:26,0.000,0.0,0.0,0.0
05/02/2022,05:26:19,0.000,0.0,0.0,0.0
05/02/2022,05:27:17,0.000,0.0,0.0,0.0
05/02/2022,05:28:26,0.001,0.0,0.0,0.0
05/02/2022,05:29:17,0.000,0.0,0.0,0.0
05/02/2022,05:30:17,0.000,0.0,0.0,0.0
05/02/2022,05:31:26,0.000,0.0,0.0,0.0
05/02/2022,05:32:18,0.000,0.0,0.0,0.0
05/02/2022,05:33:18,-0.001,0.0,0.0,0.0
05/02/2022,05:34:18,-0.001,0.0,0.0,0.0
05/02/2022,05:35:18,0.000,0.0,0.0,0.0
05/02/2022,05:36:17,0.000,0.0,0.0,0.0
05/02/2022,05:37:17,0.001,0.0,0.0,0.0
05/02/2022,05:38:18,0.000,0.0,0.0,0.0
05/02/2022,05:39:18,0.000,0.0,0.0,0.0
05/02/2022,05:40:18,0.001,0.0,0.0,0.0
05/02/2022,05:41:18,0.001,0.0,0.0,0.0
05/02/2022,05:42:17,0.000,0.0,0.0,0.0
05/02/2022,05:43:18,0.000,0.0,0.0,0.0
05/02/2022,05:44:18,0.000,0.0,0.0,0.0
05/02/2022,05:45:18,-0.001,0.0,0.0,0.0
05/02/2022,05:46:17,-0.001,0.0,0.0,0.0
05/02/2022,05:47:18,0.000,0.0,0.0,0.0
05/02/2022,05:48:17,0.000,0.0,0.0,0.0
05/02/2022,05:49:26,0.000,0.0,0.0,0.0
05/02/2022,05:50:18,0.001,0.0,0.0,0.0
05/02/2022,05:52:19,0.000,0.0,0.0,0.0
05/02/2022,05:53:18,-0.001,0.0,0.0,0.0
05/02/2022,05:54:18,-0.001,0.0,0.0,0.0
05/02/2022,05:55:18,-0.001,0.0,0.0,0.0
05/02/2022,05:56:18,-0.000,0.0,0.0,0.0
05/02/2022,05:57:17,0.000,0.0,0.0,0.0
05/02/2022,05:58:35,0.000,0.0,0.0,0.0
05/02/2022,06:00:18,0.000,0.0,0.0,0.0
05/02/2022,06:01:18,-0.000,0.0,0.0,0.0
05/02/2022,06:02:17,0.001,0.0,0.0,0.0
05/02/2022,06:03:17,-0.000,0.0,0.0,0.0
05/02/2022,06:04:17,-0.000,0.0,0.0,0.0
05/02/2022,06:05:26,0.000,0.0,0.0,0.0
05/02/2022,06:06:17,0.001,0.0,0.0,0.0
05/02/2022,06:07:18,-0.001,0.0,0.0,0.0
05/02/2022,06:08:18,0.000,0.0,0.0,0.0
05/02/2022,06:09:18,0.000,0.0,0.0,0.0
05/02/2022,06:10:18,0.000,0.0,0.0,0.0
05/02/2022,06:11:18,0.000,0.0,0.0,0.0
05/02/2022,06:12:18,-0.001,0.0,0.0,0.0
05/02/2022,06:13:17,0.000,0.0,0.0,0.0
05/02/2022,06:14:19,0.000,0.0,0.0,0.0
05/02/2022,06:15:18,-0.000,0.0,0.0,0.0
05/02/2022,06:16:26,0.000,0.0,0.0,0.0
05/02/2022,06:17:18,0.000,0.0,0.0,0.0
05/02/2022,06:18:18,0.000,0.0,0.0,0.0
05/02/2022,06:19:18,-0.001,0.0,0.0,0.0
05/02/2022,06:20:18,-0.000,0.0,0.0,0.0
05/02/2022,06:21:18,0.001,0.0,0.0,0.0
05/02/2022,06:22:17,0.000,0.0,0.0,0.0
05/02/2022,06:23:17,0.000,0.0,0.0,0.0
05/02/2022,06:24:17,0.001,0.0,0.0,0.0
05/02/2022,06:25:18,0.000,0.0,0.0,0.0
05/02/2022,06:26:17,0.000,0.0,0.0,0.0
05/02/2022,06:27:18,0.000,0.0,0.0,0.0
05/02/2022,06:28:18,0.000,0.0,0.0,0.0
05/02/2022,06:29:17,0.000,0.0,0.0,0.0
05/02/2022,06:30:27,-0.000,0.0,0.0,0.0
05/02/2022,06:31:18,0.000,0.0,0.0,0.0
05/02/2022,06:32:18,0.000,0.0,0.0,0.0
05/02/2022,06:33:25,0.001,0.0,0.0,0.0
05/02/2022,06:34:18,-0.002,0.0,0.0,0.0
05/02/2022,06:35:19,0.000,0.0,0.0,0.0
05/02/2022,06:36:26,0.001,0.0,0.0,0.0
05/02/2022,06:37:19,0.001,0.0,0.0,0.0
05/02/2022,06:38:18,-0.000,0.0,0.0,0.0
05/02/2022,06:39:17,-0.001,0.0,0.0,0.0
05/02/2022,06:40:18,-0.000,0.0,0.0,0.0
05/02/2022,06:41:18,0.000,0.0,0.0,0.0
05/02/2022,06:42:18,0.000,0.0,0.0,0.0
05/02/2022,06:43:19,0.000,0.0,0.0,0.0
05/02/2022,06:44:26,0.000,0.0,0.0,0.0
05/02/2022,06:45:18,0.000,0.0,0.0,0.0
05/02/2022,06:46:17,0.000,0.0,0.0,0.0
05/02/2022,06:47:18,0.001,0.0,0.0,0.0
05/02/2022,06:48:18,0.000,0.0,0.0,0.0
05/02/2022,06:49:18,-0.001,0.0,0.0,0.0
05/02/2022,06:50:18,-0.001,0.0,0.0,0.0
05/02/2022,06:51:18,-0.001,0.0,0.0,0.0
05/02/2022,06:52:18,-0.000,0.0,0.0,0.0
05/02/2022,06:53:18,0.000,0.0,0.0,0.0
05/02/2022,06:54:26,0.000,0.0,0.0,0.0
05/02/2022,06:55:18,-0.000,0.0,0.0,0.0
05/02/2022,06:56:18,-0.000,0.0,0.0,0.0
05/02/2022,06:57:17,0.000,0.0,0.0,0.0
05/02/2022,06:58:17,-0.000,0.0,0.0,0.0
05/02/2022,06:59:18,-0.000,0.0,0.0,0.0
05/02/2022,07:00:18,0.000,0.0,0.0,0.0
05/02/2022,07:01:19,-0.000,0.0,0.0,0.0
05/02/2022,07:02:17,0.000,0.0,0.0,0.0
05/02/2022,07:03:18,-0.001,0.0,0.0,0.0
05/02/2022,07:04:26,-0.000,0.0,0.0,0.0
05/02/2022,07:05:18,-0.001,0.0,0.0,0.0
05/02/2022,07:06:18,0.001,0.0,0.0,0.0
05/02/2022,07:07:18,-0.001,0.0,0.0,0.0
05/02/2022,07:08:17,-0.001,0.0,0.0,0.0
05/02/2022,07:09:18,-0.000,0.0,0.0,0.0
05/02/2022,07:10:18,-0.000,0.0,0.0,0.0
05/02/2022,07:11:18,0.000,0.0,0.0,0.0
05/02/2022,07:12:18,-0.000,0.0,0.0,0.0
05/02/2022,07:13:18,-0.001,0.0,0.0,0.0
05/02/2022,07:14:18,-0.001,0.0,0.0,0.0
05/02/2022,07:15:18,-0.000,0.0,0.0,0.0
05/02/2022,07:16:18,-0.000,0.0,0.0,0.0
05/02/2022,07:17:18,-0.000,0.0,0.0,0.0
05/02/2022,07:18:26,-0.001,0.0,0.0,0.0
05/02/2022,07:19:18,0.000,0.0,0.0,0.0
05/02/2022,07:20:18,0.000,0.0,0.0,0.0
05/02/2022,07:21:17,-0.001,0.0,0.0,0.0
05/02/2022,07:22:18,-0.001,0.0,0.0,0.0
05/02/2022,07:23:18,-0.000,0.0,0.0,0.0
05/02/2022,07:24:17,0.000,0.0,0.0,0.0
05/02/2022,07:25:18,0.001,0.0,0.0,0.0
05/02/2022,07:26:18,-0.001,0.0,0.0,0.0
05/02/2022,07:27:17,0.001,0.0,0.0,0.0
05/02/2022,07:28:26,-0.001,0.0,0.0,0.0
05/02/2022,07:29:17,-0.001,0.0,0.0,0.0
05/02/2022,07:30:18,0.000,0.0,0.0,0.0
05/02/2022,07:31:18,0.000,0.0,0.0,0.0
05/02/2022,07:32:18,0.000,0.0,0.0,0.0
05/02/2022,07:33:18,0.001,0.0,0.0,0.0
05/02/2022,07:34:18,0.001,0.0,0.0,0.0
05/02/2022,07:35:17,0.001,0.0,0.0,0.0
05/02/2022,07:36:17,0.001,0.0,0.0,0.0
05/02/2022,07:37:19,0.000,0.0,0.0,0.0
05/02/2022,07:38:26,0.002,0.0,0.0,0.0
05/02/2022,07:39:18,0.001,0.0,0.0,0.0
05/02/2022,07:40:18,0.002,0.0,0.0,0.0
05/02/2022,07:41:18,0.002,0.0,0.0,0.0
05/02/2022,07:42:18,0.002,0.0,0.0,0.0
05/02/2022,07:43:18,0.002,0.0,0.0,0.0
05/02/2022,07:44:18,0.002,0.0,0.0,0.0
05/02/2022,07:45:18,0.002,0.0,0.0,0.0
05/02/2022,07:46:18,0.003,0.0,0.0,0.0
05/02/2022,07:47:18,0.003,0.0,0.0,0.0
05/02/2022,07:48:18,0.002,0.0,0.0,0.0
05/02/2022,07:49:27,0.002,0.0,0.0,0.0
05/02/2022,07:50:18,0.004,0.0,0.0,0.0
05/02/2022,07:51:17,0.003,0.0,0.0,0.0
05/02/2022,07:52:17,0.003,0.0,0.0,0.0
05/02/2022,07:53:18,0.004,0.0,0.0,0.0
05/02/2022,07:54:18,0.005,0.0,0.0,0.0
05/02/2022,07:55:18,0.005,0.0,0.0,0.0
05/02/2022,07:56:18,0.005,0.0,0.0,0.0
05/02/2022,07:57:18,0.004,0.0,0.0,0.0
05/02/2022,07:58:18,0.006,0.0,0.0,0.0
05/02/2022,07:59:18,0.005,0.0,0.0,0.0
05/02/2022,08:00:18,0.006,0.0,0.0,0.0
05/02/2022,08:01:18,0.007,0.0,0.0,0.0
05/02/2022,08:02:26,0.007,0.0,0.0,0.0
05/02/2022,08:03:18,0.008,0.0,0.0,0.0
05/02/2022,08:04:18,0.008,0.0,0.001,0.001
05/02/2022,08:05:18,0.008,0.0,0.001,0.0
05/02/2022,08:06:18,0.008,0.0,0.001,0.0
05/02/2022,08:07:18,0.009,0.0,0.001,0.0
05/02/2022,08:08:18,0.009,0.0,0.001,0.0
05/02/2022,08:09:18,0.009,0.0,0.001,0.0
05/02/2022,08:10:18,0.010,0.0,0.001,0.0
05/02/2022,08:11:18,0.010,0.0,0.002,0.001
05/02/2022,08:12:18,0.011,0.0,0.002,0.0
05/02/2022,08:13:18,0.011,0.0,0.002,0.0
05/02/2022,08:14:18,0.012,0.0,0.002,0.0
05/02/2022,08:15:18,0.011,0.0,0.002,0.0
05/02/2022,08:16:26,0.013,0.0,0.003,0.001
05/02/2022,08:17:17,0.013,0.0,0.003,0.0
05/02/2022,08:18:18,0.014,0.0,0.003,0.0
05/02/2022,08:19:18,0.014,0.0,0.003,0.0
05/02/2022,08:20:18,0.015,0.0,0.004,0.001
05/02/2022,08:21:18,0.015,0.0,0.004,0.0
05/02/2022,08:22:18,0.016,0.0,0.004,0.0
05/02/2022,08:23:18,0.016,0.0,0.004,0.0
05/02/2022,08:24:17,0.016,0.0,0.005,0.001
05/02/2022,08:25:19,0.017,0.0,0.005,0.0
05/02/2022,08:26:28,0.018,0.0,0.005,0.0
05/02/2022,08:28:18,0.019,0.0,0.006,0.001
05/02/2022,08:29:18,0.020,0.0,0.006,0.0
05/02/2022,08:30:18,0.020,0.0,0.006,0.0
05/02/2022,08:31:18,0.020,0.0,0.007,0.001
05/02/2022,08:32:18,0.022,0.0,0.007,0.0
05/02/2022,08:33:18,0.022,0.0,0.007,0.0
05/02/2022,08:34:26,0.023,0.0,0.008,0.001
05/02/2022,08:35:17,0.023,0.0,0.008,0.0
05/02/2022,08:36:18,0.025,0.0,0.009,0.001
05/02/2022,08:37:18,0.026,0.0,0.009,-0.0
05/02/2022,08:38:18,0.025,0.0,0.009,-0.0
05/02/2022,08:39:18,0.027,0.0,0.01,0.001
05/02/2022,08:40:18,0.027,0.0,0.01,0.0
05/02/2022,08:41:18,0.028,0.0,0.011,0.001
05/02/2022,08:42:17,0.029,0.0,0.011,-0.0
05/02/2022,08:43:18,0.029,0.0,0.012,0.001
05/02/2022,08:44:27,0.030,0.0,0.012,0.0
05/02/2022,08:45:18,0.031,0.0,0.013,0.001
05/02/2022,08:46:18,0.032,0.0,0.013,-0.0
05/02/2022,08:47:18,0.033,0.0,0.014,0.001
05/02/2022,08:48:17,0.034,0.0,0.014,0.0
05/02/2022,08:49:18,0.034,0.0,0.015,0.001
05/02/2022,08:50:18,0.035,0.0,0.016,0.001
05/02/2022,08:51:27,0.036,0.0,0.016,0.0
05/02/2022,08:52:18,0.036,0.0,0.017,0.001
05/02/2022,08:53:18,0.037,0.0,0.017,0.0
05/02/2022,08:54:18,0.038,0.0,0.018,0.001
05/02/2022,08:55:18,0.039,0.0,0.019,0.001
05/02/2022,08:56:19,0.039,0.0,0.019,0.0
05/02/2022,08:57:18,0.040,0.0,0.02,0.001
05/02/2022,08:58:18,0.041,0.0,0.021,0.001
05/02/2022,08:59:18,0.041,0.0,0.021,0.0
05/02/2022,09:00:18,0.041,0.0,0.022,0.001
05/02/2022,09:01:27,0.041,0.0,0.023,0.001
05/02/2022,09:02:18,0.043,0.0,0.023,0.0
05/02/2022,09:03:18,0.044,0.0,0.024,0.001
05/02/2022,09:04:27,0.045,0.0,0.025,0.001
05/02/2022,09:05:17,0.045,0.0,0.026,0.001
05/02/2022,09:06:18,0.046,0.0,0.026,-0.0
05/02/2022,09:07:18,0.046,0.0,0.027,0.001
05/02/2022,09:08:18,0.047,0.0,0.028,0.001
05/02/2022,09:09:18,0.049,0.0,0.029,0.001
05/02/2022,09:10:18,0.050,0.0,0.029,0.0
05/02/2022,09:11:18,0.051,0.0,0.03,0.001
05/02/2022,09:12:17,0.052,0.0,0.031,0.001
05/02/2022,09:13:18,0.053,0.0,0.032,0.001
05/02/2022,09:14:19,0.054,0.0,0.033,0.001
05/02/2022,09:15:18,0.056,0.0,0.034,0.001
05/02/2022,09:16:09,0.056,0.0,0.035,0.001
05/02/2022,09:17:19,0.057,0.0,0.036,0.001
05/02/2022,09:18:26,0.058,0.0,0.037,0.001
05/02/2022,09:19:18,0.058,0.0,0.038,0.001
05/02/2022,09:20:18,0.059,0.0,0.039,0.001
05/02/2022,09:21:18,0.061,0.0,0.04,0.001
05/02/2022,09:22:26,0.063,0.0,0.041,0.001
05/02/2022,09:23:18,0.065,0.0,0.042,0.001
05/02/2022,09:24:18,0.067,0.0,0.043,0.001
05/02/2022,09:25:27,0.069,0.0,0.044,0.001
05/02/2022,09:26:17,0.072,0.0,0.045,0.001
05/02/2022,09:27:18,0.073,0.0,0.046,0.001
05/02/2022,09:28:18,0.075,0.0,0.048,0.002
05/02/2022,09:29:18,0.076,0.0,0.049,0.001
05/02/2022,09:30:18,0.078,0.0,0.05,0.001
05/02/2022,09:31:19,0.078,0.0,0.051,0.001
05/02/2022,09:32:18,0.079,0.0,0.053,0.002
05/02/2022,09:33:18,0.080,0.0,0.054,0.001
05/02/2022,09:34:19,0.080,0.0,0.055,0.001
05/02/2022,09:35:27,0.082,0.0,0.057,0.002
05/02/2022,09:36:18,0.082,0.0,0.058,0.001
05/02/2022,09:37:20,0.086,0.0,0.06,0.002
05/02/2022,09:38:18,0.088,0.0,0.061,0.001
05/02/2022,09:39:19,0.090,0.0,0.062,0.001
05/02/2022,09:40:19,0.090,0.0,0.064,0.002
05/02/2022,09:41:18,0.091,0.0,0.065,0.001
05/02/2022,09:42:18,0.093,0.0,0.067,0.002
05/02/2022,09:43:18,0.093,0.0,0.069,0.002
05/02/2022,09:44:18,0.094,0.0,0.07,0.001
05/02/2022,09:45:18,0.097,0.0,0.072,0.002
05/02/2022,09:46:18,0.096,0.0,0.073,0.001
05/02/2022,09:47:18,0.098,0.0,0.075,0.002
05/02/2022,09:48:19,0.101,0.0,0.077,0.002
05/02/2022,09:49:19,0.102,0.0,0.078,0.001
05/02/2022,09:50:18,0.103,0.0,0.08,0.002
05/02/2022,09:51:18,0.104,0.0,0.082,0.002
05/02/2022,09:52:18,0.104,0.0,0.083,0.001
05/02/2022,09:53:18,0.106,0.0,0.085,0.002
05/02/2022,09:54:18,0.106,0.0,0.087,0.002
05/02/2022,09:55:09,0.108,0.0,0.088,0.001
05/02/2022,09:56:19,0.111,0.0,0.091,0.003
05/02/2022,09:57:18,0.112,0.0,0.092,0.001
05/02/2022,09:58:18,0.113,0.0,0.094,0.002
05/02/2022,09:59:18,0.114,0.0,0.096,0.002
05/02/2022,10:00:18,0.114,0.0,0.098,0.002
05/02/2022,10:01:18,0.116,0.0,0.1,0.002
05/02/2022,10:02:18,0.117,0.0,0.102,0.002
05/02/2022,10:03:18,0.120,0.0,0.104,0.002
05/02/2022,10:04:18,0.121,0.0,0.106,0.002
05/02/2022,10:05:18,0.123,0.0,0.108,0.002
05/02/2022,10:06:18,0.125,0.0,0.11,0.002
05/02/2022,10:07:18,0.127,0.0,0.112,0.002
05/02/2022,10:08:18,0.129,0.0,0.114,0.002
05/02/2022,10:10:19,0.134,0.0,0.119,0.005
05/02/2022,10:11:18,0.138,0.0,0.121,0.002
05/02/2022,10:12:18,0.142,0.0,0.123,0.002
05/02/2022,10:13:18,0.146,0.0,0.126,0.003
05/02/2022,10:14:18,0.148,0.0,0.128,0.002
05/02/2022,10:15:18,0.151,0.0,0.131,0.003
05/02/2022,10:16:18,0.154,0.0,0.133,0.002
05/02/2022,10:17:18,0.155,0.0,0.136,0.003
05/02/2022,10:18:19,0.155,0.0,0.138,0.002
05/02/2022,10:19:27,0.159,0.0,0.141,0.003
05/02/2022,10:20:18,0.160,0.0,0.144,0.003
05/02/2022,10:21:18,0.160,0.0,0.146,0.002
05/02/2022,10:22:18,0.161,0.0,0.149,0.003
05/02/2022,10:23:18,0.164,0.0,0.152,0.003
05/02/2022,10:24:18,0.166,0.0,0.154,0.002